Location: Buffalo
(50.8000°N, 110.6833°W)
Time: 03:12:27
(UTC+00:00)

X-37B - Visible Passes

Search period start: 07 December 2021 00:00
Search period end: 17 December 2021 00:00
Orbit: 330 x 341 km, 45.0° (Epoch: 20 November)

Date Brightness Start Highest point End Pass type
(mag) Time Alt. Az. Time Alt. Az. Time Alt. Az.
09 Dec 2.8 01:12:18 10° SSW 01:13:51 14° SSE 01:13:51 14° SSE visible
10 Dec 2.5 01:31:47 10° SW 01:33:25 19° S 01:33:25 19° S visible
11 Dec 2.9 00:17:44 10° S 00:19:17 14° SSE 00:20:51 10° SE visible
11 Dec 2.9 01:51:47 10° SW 01:52:57 18° SW 01:52:57 18° SW visible
12 Dec 2.4 00:37:13 10° SW 00:39:26 20° SSE 00:41:16 12° ESE visible
12 Dec 3.6 02:12:00 10° WSW 02:12:29 13° WSW 02:12:29 13° WSW visible
13 Dec 2.1 00:57:12 10° SW 00:59:39 25° S 01:00:49 19° SE visible
14 Dec 2.1 01:17:26 10° WSW 01:19:53 25° S 01:20:24 23° SSE visible
15 Dec 2.3 00:02:38 10° SW 00:05:04 25° S 00:07:30 10° ESE visible
15 Dec 2.6 01:37:51 10° WSW 01:40:02 20° SSW 01:40:02 20° SSW visible
16 Dec 2.3 00:22:51 10° WSW 00:25:18 25° S 00:27:44 10° SE visible
16 Dec 3.3 01:58:39 10° SW 01:59:46 13° SSW 01:59:46 13° SSW visible
